Total_Precipitation_Accumulation
0.24 0.29 0.34 0.43 0.36 0.24 0.11 0.03 0.01 0.01 0.01 0.02 0.02 0.03 0.02 0.03 0.04 0.08 0.06 0.04 0.05 0.08 0.12 0.22 0.34 0.34 0.31 0.27 0.22 0.20 0.21 0.22 0.23 0.24 0.25 0.25 0.23 0.25 0.31 0.33 0.33 0.34 0.36 0.42 0.47 0.44 0.40 0.37 0.26
0.28 0.40 0.56 0.62 0.41 0.24 0.11 0.03 0.01 0.01 0.01 0.01 0.02 0.02 0.02 0.03 0.04 0.06 0.06 0.06 0.10 0.12 0.14 0.22 0.33 0.36 0.32 0.28 0.23 0.22 0.24 0.26 0.29 0.31 0.32 0.34 0.31 0.32 0.35 0.38 0.36 0.33 0.33 0.36 0.35 0.28 0.22 0.20 0.15
0.45 0.62 0.78 0.69 0.48 0.26 0.12 0.03 0.02 0.02 0.02 0.02 0.03 0.03 0.04 0.05 0.05 0.08 0.08 0.07 0.12 0.18 0.19 0.25 0.35 0.41 0.38 0.32 0.27 0.24 0.26 0.29 0.31 0.35 0.40 0.42 0.43 0.43 0.40 0.39 0.35 0.30 0.27 0.24 0.18 0.15 0.14 0.13 0.11
0.71 0.92 0.96 0.75 0.45 0.20 0.09 0.05 0.03 0.04 0.03 0.03 0.04 0.06 0.08 0.06 0.07 0.08 0.13 0.12 0.13 0.21 0.26 0.34 0.42 0.47 0.47 0.40 0.33 0.30 0.32 0.32 0.34 0.36 0.41 0.47 0.53 0.53 0.48 0.39 0.28 0.23 0.20 0.17 0.14 0.12 0.12 0.10 0.08
0.97 1.08 0.99 0.71 0.34 0.15 0.07 0.06 0.05 0.05 0.05 0.05 0.07 0.09 0.13 0.11 0.12 0.16 0.17 0.17 0.16 0.22 0.30 0.41 0.50 0.52 0.52 0.49 0.44 0.41 0.40 0.39 0.38 0.38 0.43 0.49 0.51 0.49 0.45 0.33 0.24 0.19 0.18 0.16 0.14 0.12 0.12 0.11 0.08
1.13 1.18 0.97 0.59 0.25 0.10 0.06 0.07 0.08 0.08 0.07 0.10 0.13 0.17 0.21 0.21 0.22 0.25 0.29 0.24 0.20 0.23 0.36 0.48 0.60 0.59 0.56 0.52 0.50 0.50 0.47 0.47 0.45 0.43 0.46 0.49 0.50 0.47 0.41 0.33 0.26 0.21 0.19 0.19 0.17 0.14 0.12 0.12 0.11
1.06 1.05 0.77 0.43 0.20 0.11 0.07 0.09 0.11 0.12 0.11 0.13 0.16 0.23 0.33 0.37 0.38 0.37 0.42 0.42 0.35 0.34 0.45 0.56 0.69 0.71 0.68 0.63 0.56 0.52 0.52 0.53 0.54 0.53 0.54 0.48 0.43 0.42 0.39 0.34 0.28 0.24 0.21 0.20 0.18 0.17 0.14 0.13 0.13
1.01 1.16 0.67 0.40 0.23 0.15 0.10 0.10 0.12 0.16 0.17 0.15 0.21 0.29 0.38 0.46 0.54 0.57 0.62 0.66 0.61 0.56 0.61 0.70 0.79 0.78 0.72 0.68 0.64 0.59 0.55 0.54 0.57 0.58 0.53 0.48 0.42 0.40 0.38 0.31 0.27 0.23 0.21 0.20 0.18 0.17 0.15 0.14 0.13
0.97 1.23 0.73 0.35 0.27 0.20 0.15 0.15 0.15 0.19 0.25 0.22 0.24 0.30 0.42 0.58 0.75 0.81 0.90 0.92 0.92 0.85 0.81 0.83 0.89 0.89 0.82 0.75 0.70 0.68 0.61 0.56 0.57 0.56 0.49 0.48 0.49 0.44 0.37 0.26 0.21 0.20 0.20 0.19 0.19 0.17 0.15 0.13 0.10
0.96 0.95 0.64 0.37 0.31 0.28 0.24 0.23 0.25 0.31 0.37 0.34 0.32 0.42 0.60 0.87 1.07 1.04 0.90 0.94 0.95 0.99 0.96 0.92 0.92 0.91 0.91 0.86 0.78 0.78 0.70 0.61 0.57 0.50 0.50 0.51 0.50 0.46 0.35 0.29 0.24 0.21 0.20 0.21 0.23 0.23 0.19 0.14 0.10
0.68 0.56 0.47 0.44 0.38 0.35 0.34 0.31 0.29 0.38 0.39 0.39 0.32 0.43 0.66 1.04 1.31 1.32 1.22 1.06 1.03 1.06 1.12 1.10 1.04 0.96 0.91 0.94 0.85 0.80 0.75 0.68 0.60 0.52 0.51 0.54 0.58 0.55 0.50 0.42 0.36 0.33 0.26 0.27 0.26 0.27 0.19 0.13 0.10
0.49 0.39 0.44 0.52 0.46 0.41 0.40 0.38 0.35 0.39 0.37 0.37 0.38 0.43 0.64 0.96 1.28 1.37 1.48 1.38 1.30 1.26 1.20 1.23 1.19 1.10 0.96 0.93 0.89 0.85 0.79 0.73 0.63 0.52 0.50 0.51 0.51 0.50 0.47 0.39 0.34 0.33 0.28 0.27 0.26 0.22 0.17 0.14 0.12
0.42 0.40 0.42 0.49 0.48 0.42 0.43 0.44 0.42 0.39 0.40 0.46 0.51 0.61 0.72 0.99 1.36 1.54 1.69 1.77 1.64 1.44 1.36 1.38 1.30 1.15 1.04 0.97 0.90 0.86 0.85 0.80 0.70 0.64 0.57 0.49 0.42 0.38 0.39 0.37 0.37 0.35 0.29 0.25 0.26 0.22 0.20 0.18 0.16
0.36 0.41 0.45 0.51 0.53 0.44 0.49 0.45 0.43 0.40 0.47 0.59 0.61 0.67 0.78 1.06 1.36 1.61 1.78 1.88 1.76 1.67 1.61 1.61 1.51 1.32 1.14 1.04 0.94 0.86 0.85 0.86 0.86 0.73 0.61 0.60 0.51 0.42 0.40 0.39 0.38 0.36 0.33 0.31 0.30 0.26 0.26 0.24 0.21
0.43 0.52 0.55 0.56 0.56 0.51 0.53 0.55 0.41 0.38 0.52 0.63 0.62 0.66 0.74 0.97 1.30 1.52 1.62 1.71 1.79 1.71 1.76 1.79 1.74 1.61 1.36 1.17 1.09 0.96 0.92 0.90 0.90 0.81 0.69 0.64 0.60 0.53 0.49 0.46 0.41 0.36 0.34 0.35 0.39 0.38 0.35 0.30 0.26
0.70 0.75 0.68 0.52 0.55 0.53 0.63 0.60 0.37 0.39 0.50 0.62 0.64 0.65 0.72 0.83 1.15 1.42 1.54 1.66 1.86 1.81 1.78 1.91 1.94 1.84 1.66 1.43 1.29 1.14 1.03 0.97 0.88 0.83 0.76 0.68 0.64 0.57 0.56 0.52 0.47 0.42 0.42 0.39 0.40 0.43 0.42 0.37 0.32
0.99 0.78 0.51 0.44 0.49 0.52 0.57 0.57 0.41 0.37 0.46 0.55 0.63 0.64 0.69 0.75 0.96 1.28 1.47 1.55 1.80 1.91 1.93 1.98 2.08 2.08 2.03 1.89 1.74 1.52 1.30 1.21 1.10 0.98 0.87 0.78 0.71 0.63 0.59 0.56 0.52 0.52 0.51 0.43 0.38 0.39 0.39 0.39 0.39
0.66 0.46 0.35 0.40 0.43 0.43 0.44 0.49 0.45 0.39 0.44 0.50 0.61 0.68 0.71 0.73 0.80 1.04 1.34 1.49 1.82 2.12 2.20 2.11 2.22 2.33 2.38 2.40 2.24 2.07 1.74 1.48 1.31 1.14 1.03 0.94 0.85 0.75 0.67 0.64 0.59 0.58 0.61 0.57 0.49 0.42 0.41 0.39 0.39
0.48 0.40 0.35 0.37 0.36 0.41 0.40 0.45 0.48 0.45 0.45 0.53 0.63 0.69 0.73 0.71 0.76 0.99 1.22 1.48 1.79 2.18 2.36 2.33 2.27 2.41 2.61 2.44 2.22 2.02 1.81 1.64 1.48 1.33 1.20 1.12 1.01 0.92 0.82 0.73 0.71 0.68 0.64 0.62 0.61 0.60 0.57 0.55 0.55
0.62 0.54 0.45 0.43 0.39 0.45 0.43 0.46 0.45 0.47 0.47 0.51 0.60 0.66 0.66 0.60 0.69 0.92 1.12 1.35 1.55 2.00 2.27 2.29 2.34 2.45 2.61 2.48 2.34 2.29 2.23 2.02 1.83 1.70 1.43 1.24 1.12 1.03 0.97 0.87 0.80 0.77 0.76 0.72 0.71 0.72 0.70 0.68 0.70
0.72 0.61 0.49 0.48 0.50 0.48 0.46 0.50 0.41 0.41 0.43 0.44 0.56 0.63 0.61 0.57 0.64 0.80 0.97 1.18 1.28 1.56 1.94 2.11 2.16 2.31 2.42 2.56 2.81 2.81 2.70 2.36 1.92 1.63 1.53 1.44 1.40 1.30 1.16 1.14 1.06 0.91 0.85 0.79 0.76 0.74 0.75 0.75 0.74
0.73 0.50 0.49 0.50 0.63 0.64 0.49 0.62 0.43 0.39 0.43 0.44 0.56 0.62 0.61 0.59 0.62 0.74 0.86 0.97 1.10 1.24 1.57 1.92 2.11 2.23 2.25 2.33 2.56 2.66 2.52 2.18 1.83 1.62 1.63 1.68 1.63 1.59 1.53 1.40 1.35 1.22 1.06 0.94 0.90 0.88 0.88 0.91 0.88
0.65 0.46 0.55 0.62 0.69 0.69 0.48 0.56 0.47 0.40 0.47 0.50 0.56 0.63 0.64 0.64 0.67 0.72 0.77 0.81 0.89 1.04 1.36 1.68 1.91 2.13 2.16 2.10 2.19 2.40 2.48 2.35 2.19 2.01 1.89 1.81 1.75 1.65 1.63 1.59 1.52 1.42 1.31 1.22 1.16 1.10 1.07 1.06 1.02
0.73 0.74 0.85 0.92 1.11 1.07 0.48 0.47 0.43 0.44 0.54 0.54 0.54 0.64 0.70 0.74 0.74 0.74 0.75 0.75 0.81 0.88 1.04 1.34 1.62 1.93 2.11 2.06 2.09 2.17 2.22 2.29 2.21 2.06 2.03 1.93 1.90 1.78 1.64 1.60 1.59 1.53 1.50 1.45 1.42 1.39 1.29 1.22 1.17
1.14 1.50 1.84 1.79 1.57 0.91 0.28 0.31 0.43 0.41 0.47 0.51 0.54 0.62 0.67 0.68 0.67 0.65 0.64 0.64 0.74 0.83 0.89 1.09 1.25 1.51 1.78 1.91 1.95 1.98 2.06 2.11 2.15 2.13 2.09 2.07 1.93 1.78 1.69 1.63 1.64 1.64 1.57 1.55 1.55 1.51 1.40 1.33 1.27
1.15 1.34 1.43 1.22 0.80 0.42 0.23 0.35 0.43 0.38 0.40 0.44 0.49 0.57 0.66 0.71 0.70 0.66 0.63 0.66 0.77 0.81 0.87 0.98 1.08 1.20 1.42 1.62 1.70 1.73 1.86 1.94 1.91 1.98 1.96 1.92 1.85 1.76 1.75 1.74 1.66 1.66 1.64 1.59 1.56 1.52 1.42 1.37 1.33
1.08 0.99 0.77 0.94 0.68 0.46 0.32 0.29 0.32 0.32 0.36 0.41 0.42 0.48 0.59 0.64 0.63 0.65 0.66 0.69 0.75 0.78 0.83 0.92 1.00 1.02 1.13 1.31 1.45 1.56 1.60 1.62 1.58 1.59 1.61 1.64 1.66 1.66 1.62 1.63 1.58 1.52 1.51 1.50 1.51 1.48 1.38 1.34 1.29
0.95 0.81 0.87 1.14 0.94 0.65 0.33 0.26 0.39 0.39 0.40 0.41 0.42 0.44 0.53 0.60 0.62 0.65 0.68 0.66 0.67 0.71 0.75 0.83 0.86 0.86 0.91 1.01 1.09 1.26 1.36 1.36 1.39 1.40 1.37 1.35 1.34 1.37 1.39 1.41 1.40 1.36 1.36 1.35 1.35 1.33 1.32 1.31 1.22
0.74 0.84 0.92 0.93 0.74 0.75 0.50 0.37 0.37 0.40 0.42 0.43 0.47 0.48 0.54 0.57 0.64 0.69 0.72 0.70 0.68 0.72 0.74 0.76 0.72 0.74 0.77 0.84 0.89 0.95 1.07 1.14 1.19 1.21 1.14 1.15 1.11 1.08 1.10 1.08 1.10 1.13 1.15 1.17 1.18 1.17 1.19 1.22 1.18
0.56 0.57 0.71 0.96 0.73 0.60 0.56 0.38 0.27 0.32 0.36 0.42 0.49 0.49 0.50 0.53 0.57 0.62 0.69 0.69 0.68 0.71 0.74 0.77 0.70 0.67 0.69 0.75 0.76 0.78 0.87 0.98 1.03 1.08 1.02 0.97 0.98 0.92 0.91 0.90 0.87 0.87 0.89 0.93 0.95 0.96 1.00 1.05 1.06